STARLINK-1007 1 44713U 19074A 21018.83093584 .00000609 00000-0 59809-4 0 9992 2 44713 53.0577 327.6518 0001851 61.4861 298.6314 15.06390831 66013 STARLINK-1008 1 44714U 19074B 21019.14423419 .00000382 00000-0 44558-4 0 9995 2 44714 53.0576 326.2484 0002088 74.6555 285.4665 15.06405233 66239 STARLINK-1009 1 44715U 19074C 21019.13317413 -.00001170 00000-0 -59671-4 0 9991 2 44715 53.0569 326.2965 0001838 78.2094 281.9101 15.06393318 66221 STARLINK-1010 1 44716U 19074D 21018.87013007 .00000349 00000-0 43120-4 0 9991 2 44716 53.0017 327.5017 0001753 72.0830 288.0349 15.05584096 66011 STARLINK-1011 1 44717U 19074E 21018.88439186 .00003511 00000-0 25450-3 0 9992 2 44717 53.0588 347.4194 0001560 59.7606 300.3538 15.06394560 65744 STARLINK-1012 1 44718U 19074F 21018.85674758 .00000366 00000-0 43474-4 0 9998 2 44718 53.0567 327.5399 0001592 77.1435 282.9732 15.06390183 66016 STARLINK-1013 1 44719U 19074G 21019.12949456 .00000520 00000-0 53833-4 0 9992 2 44719 53.0583 326.3161 0001683 82.1280 277.9900 15.06392086 66222 STARLINK-1014 1 44720U 19074H 21018.88252677 .00000241 00000-0 35072-4 0 9993 2 44720 53.0341 327.3801 0001705 201.3635 158.7282 15.06400473 66029 STARLINK-1015 1 44721U 19074J 21018.87148434 .00000268 00000-0 36899-4 0 9995 2 44721 53.0558 327.4751 0001349 87.7081 272.4062 15.06395332 66016 STARLINK-1016 1 44722U 19074K 21018.87516134 -.00001593 00000-0 -88082-4 0 9997 2 44722 53.0566 327.4564 0001933 69.1457 290.9739 15.06391567 66021 STARLINK-1017 1 44723U 19074L 21018.82356505 .00000579 00000-0 57755-4 0 9991 2 44723 53.0564 327.6908 0001710 64.1263 295.9902 15.06391105 66011 STARLINK-1019 1 44724U 19074M 21018.85305925 .00000279 00000-0 37606-4 0 9995 2 44724 53.0569 327.5522 0001683 89.2491 270.8690 15.06400875 66019 STARLINK-1020 1 44725U 19074N 21019.19032842 .00000254 00000-0 35950-4 0 9992 2 44725 53.0591 346.0439 0001632 63.4018 296.7138 15.06389025 65950 STARLINK-1021 1 44726U 19074P 21018.84937104 .00000255 00000-0 36018-4 0 9996 2 44726 53.0576 327.5687 0001645 68.6784 291.4380 15.06387238 66017 STARLINK-1022 1 44727U 19074Q 21018.69454244 .00000495 00000-0 52147-4 0 9996 2 44727 53.0601 8.2712 0001939 62.9116 297.2071 15.06401844 65448 STARLINK-1023 1 44728U 19074R 21018.56186089 -.00001407 00000-0 -75588-4 0 9992 2 44728 53.0540 328.8624 0001915 70.0462 290.0733 15.06392525 66141 STARLINK-1024 1 44729U 19074S 21018.60406789 .00001640 00000-0 12956-3 0 9996 2 44729 53.0022 348.4454 0001423 97.2469 262.8681 15.06226846 65878 STARLINK-1025 1 44730U 19074T 21018.83028946 .00000316 00000-0 40839-4 0 9999 2 44730 53.0013 327.6764 0001769 71.3153 288.8027 15.05588504 66019 STARLINK-1026 1 44731U 19074U 21019.12582168 .00005414 00000-0 38204-3 0 9990 2 44731 53.0583 326.3332 0001796 73.3929 286.7257 15.06405047 66228 STARLINK-1027 1 44732U 19074V 21019.17924703 -.00002316 00000-0 -13664-3 0 9994 2 44732 53.0580 346.0974 0002035 63.2667 296.8530 15.06396959 65957 STARLINK-1028 1 44733U 19074W 21018.84567370 .00000257 00000-0 36137-4 0 9992 2 44733 53.0557 327.5840 0001713 63.0577 297.0587 15.06400852 66019 STARLINK-1029 1 44734U 19074X 21019.03449296 .00000073 00000-0 24201-4 0 9996 2 44734 53.0018 246.7641 0002236 83.8346 276.2897 15.05592530 67331 STARLINK-1030 1 44735U 19074Y 21019.18663562 .00000329 00000-0 40981-4 0 9994 2 44735 53.0581 346.0559 0001918 62.7582 297.3602 15.06388007 65950 STARLINK-1031 1 44736U 19074Z 21019.20137071 -.00001044 00000-0 -51231-4 0 9996 2 44736 53.0592 345.9811 0002023 62.8023 297.3172 15.06389264 65960 STARLINK-1032 1 44737U 19074AA 21018.34991986 .00000433 00000-0 47974-4 0 9992 2 44737 53.0574 349.8138 0001711 61.4117 298.7044 15.06396941 65837 STARLINK-1033 1 44738U 19074AB 21019.19768599 .00000523 00000-0 54022-4 0 9991 2 44738 53.0586 346.0201 0002448 54.7962 305.3255 15.06390234 65953 STARLINK-1052 1 44739U 19074AC 21018.87185524 .00001565 00000-0 12532-3 0 9993 2 44739 53.0013 347.3953 0001281 89.8469 270.2665 15.05971654 65733 STARLINK-1035 1 44740U 19074AD 21018.61162452 .00000397 00000-0 45556-4 0 9997 2 44740 53.0598 348.6482 0001678 63.5838 296.5323 15.06390227 65872 STARLINK-1036 1 44741U 19074AE 21018.88807077 .00000319 00000-0 40291-4 0 9991 2 44741 53.0572 347.3952 0001718 65.3080 294.8088 15.06395002 65748 STARLINK-1037 1 44742U 19074AF 21018.84908484 .00008054 00000-0 54942-3 0 9993 2 44742 52.9996 346.1412 0001675 46.5879 313.5248 15.07043444 65753 STARLINK-1038 1 44743U 19074AG 21019.13687133 .00000416 00000-0 46823-4 0 9996 2 44743 53.0589 6.2891 0002240 55.6449 304.4752 15.06390129 65676 STARLINK-1039 1 44744U 19074AH 21018.81617987 .00000504 00000-0 52725-4 0 9997 2 44744 53.0568 7.7201 0001610 53.4006 306.7131 15.06401964 65452 STARLINK-1041 1 44746U 19074AK 21018.66879430 .00004609 00000-0 32803-3 0 9999 2 44746 53.0597 8.3910 0000432 14.1443 345.9558 15.06405996 65435 STARLINK-1042 1 44747U 19074AL 21018.83091922 .00000378 00000-0 44290-4 0 9994 2 44747 53.0580 7.6559 0001799 63.6022 296.5151 15.06401923 65467 STARLINK-1043 1 44748U 19074AM 21018.79407090 -.00000967 00000-0 -46002-4 0 9996 2 44748 53.0566 7.8178 0001852 56.4392 303.6773 15.06393653 65450 STARLINK-1044 1 44749U 19074AN 21018.89174233 .00000588 00000-0 58354-4 0 9998 2 44749 53.0576 347.3840 0001998 58.1457 301.9726 15.06402298 65749 STARLINK-1045 1 44750U 19074AP 21019.06479832 .00154508 21541-4 26435-3 0 9996 2 44750 52.9945 300.0052 0004659 122.2443 237.9039 16.02174029 66588 STARLINK-1046 1 44751U 19074AQ 21019.14055061 .00000339 00000-0 41685-4 0 9990 2 44751 53.0582 6.2672 0001869 61.9719 298.1458 15.06400005 65678 STARLINK-1047 1 44752U 19074AR 21018.89544424 .00000635 00000-0 61560-4 0 9991 2 44752 53.0559 347.3635 0001790 71.5319 288.5865 15.06395758 65748 STARLINK-1048 1 44753U 19074AS 21019.16634065 .00000370 00000-0 43719-4 0 9996 2 44753 53.0549 326.1464 0001844 65.9861 294.1321 15.06401721 66235 STARLINK-1049 1 44754U 19074AT 21019.17003999 .00000169 00000-0 30248-4 0 9993 2 44754 53.0551 326.1304 0001681 70.6710 289.4460 15.06396281 66232 STARLINK-1050 1 44755U 19074AU 21018.81987451 .00000325 00000-0 40714-4 0 9991 2 44755 53.0605 7.7068 0001812 66.4850 293.6329 15.06404204 66007 STARLINK-1051 1 44756U 19074AV 21019.10738122 -.00001435 00000-0 -77472-4 0 9990 2 44756 53.0547 326.4122 0001518 76.2976 283.8182 15.06391128 66228 STARLINK-1034 1 44757U 19074AW 21019.17189346 .00000166 00000-0 30060-4 0 9996 2 44757 53.0599 346.1327 0001925 57.9078 302.2098 15.06389410 65955 STARLINK-1053 1 44758U 19074AX 21019.17740271 .00000610 00000-0 59838-4 0 9995 2 44758 53.0588 6.1015 0001751 57.0766 303.0391 15.06402331 65686 STARLINK-1054 1 44759U 19074AY 21018.77195027 .00000209 00000-0 32931-4 0 9993 2 44759 53.0594 7.9277 0001619 59.4830 300.6319 15.06400756 63099 STARLINK-1055 1 44760U 19074AZ 21019.15529369 .00000253 00000-0 35897-4 0 9991 2 44760 53.0603 6.2055 0002058 60.3818 299.7376 15.06398168 65684 STARLINK-1056 1 44761U 19074BA 21019.16634141 .00000193 00000-0 31870-4 0 9998 2 44761 53.0604 6.1570 0001849 56.1990 303.9175 15.06402994 65686 STARLINK-1057 1 44762U 19074BB 21019.16819355 .00000104 00000-0 25930-4 0 9993 2 44762 53.0609 346.1509 0002093 65.1370 294.9837 15.06396785 65959 STARLINK-1058 1 44763U 19074BC 21019.18846604 -.00001476 00000-0 -80225-4 0 9996 2 44763 53.0607 6.0567 0001576 66.5881 293.5274 15.06391259 65682 STARLINK-1059 1 44764U 19074BD 21018.83277122 -.00001500 00000-0 -81864-4 0 9999 2 44764 53.0600 347.6568 0001863 56.9786 303.1382 15.06389023 65737 STARLINK-1060 1 44765U 19074BE 21019.18294353 .00000238 00000-0 34903-4 0 9991 2 44765 53.0591 346.0767 0001913 64.2079 295.9108 15.06396837 65953 STARLINK-1061 1 44766U 19074BF 21018.38492800 -.00001512 00000-0 -82636-4 0 9994 2 44766 53.0608 9.6626 0001731 60.0167 300.0994 15.06390883 65562 STARLINK-1062 1 44767U 19074BG 21018.37757033 .00000335 00000-0 41410-4 0 9991 2 44767 53.0590 9.6918 0001866 59.5325 300.5848 15.06392321 65567 STARLINK-1063 1 44768U 19074BH 21018.66507454 .00000554 00000-0 56093-4 0 9990 2 44768 53.0585 8.4006 0001776 55.3929 304.7227 15.06387367 65449 STARLINK-1064 1 44769U 19074BJ 21018.82068585 .00000762 00000-0 71449-4 0 9999 2 44769 53.0019 7.7166 0001510 62.7573 297.3568 15.05583271 65541 STARLINK-1065 1 44770U 19074BK 21018.94986313 .00003597 00000-0 25610-3 0 9999 2 44770 53.0054 5.8815 0000777 46.8243 313.2810 15.07007852 65662 STARLINK-1067 1 44771U 19074BL 21019.18479749 .00000401 00000-0 45808-4 0 9990 2 44771 53.0569 6.0619 0001938 64.5552 295.5638 15.06390818 65687 STARLINK-1068 1 44772U 19074BM 21019.17557647 .00000197 00000-0 32162-4 0 9995 2 44772 53.0596 346.1200 0002034 62.1732 297.9463 15.06394403 65950